TimeEST,TemperatureF,Dew PointF,Humidity,Sea Level PressureIn,VisibilityMPH,Wind Direction,Wind SpeedMPH,Gust SpeedMPH,PrecipitationIn,Events,Conditions,WindDirDegrees,DateUTC
12:55 AM,23.0,20.5,90,30.66,10.0,North,6.9,-,N/A,,Clear,10,2012-11-18 05:55:00
1:55 AM,25.2,23.0,91,30.67,10.0,Calm,Calm,-,N/A,,Clear,0,2012-11-18 06:55:00
2:55 AM,22.8,21.2,93,30.67,5.0,Calm,Calm,-,N/A,,Clear,0,2012-11-18 07:55:00
2:56 AM,23.0,21.2,93,30.67,2.0,Calm,Calm,-,N/A,,Clear,0,2012-11-18 07:56:00
2:58 AM,23.0,21.2,93,30.67,1.8,Calm,Calm,-,N/A,,Clear,0,2012-11-18 07:58:00
3:03 AM,23.0,23.0,100,30.67,2.0,Calm,Calm,-,N/A,,Clear,0,2012-11-18 08:03:00
3:04 AM,23.0,23.0,100,30.67,1.8,Calm,Calm,-,N/A,,Clear,0,2012-11-18 08:04:00
3:05 AM,23.0,23.0,100,30.66,2.0,Calm,Calm,-,N/A,,Clear,0,2012-11-18 08:05:00
3:06 AM,23.0,21.2,93,30.66,2.5,NNE,3.5,-,N/A,,Clear,20,2012-11-18 08:06:00
3:07 AM,23.0,21.2,93,30.66,3.0,NNE,3.5,-,N/A,,Clear,30,2012-11-18 08:07:00
3:55 AM,23.0,21.6,94,30.67,9.0,Calm,Calm,-,N/A,,Clear,0,2012-11-18 08:55:00
4:55 AM,21.7,20.1,93,30.69,8.0,Calm,Calm,-,N/A,,Clear,0,2012-11-18 09:55:00
5:55 AM,21.6,19.9,93,30.71,10.0,Calm,Calm,-,N/A,,Clear,0,2012-11-18 10:55:00
6:55 AM,21.0,19.2,93,30.72,10.0,Calm,Calm,-,N/A,,Clear,0,2012-11-18 11:55:00
7:55 AM,23.9,22.5,94,30.73,10.0,NE,3.5,-,N/A,,Clear,40,2012-11-18 12:55:00
8:55 AM,31.8,27.5,84,30.72,10.0,NE,5.8,-,N/A,,Partly Cloudy,50,2012-11-18 13:55:00
9:55 AM,37.4,25.5,62,30.72,10.0,NNE,5.8,-,N/A,,Clear,20,2012-11-18 14:55:00
10:55 AM,42.3,26.1,53,30.71,10.0,NNE,4.6,-,N/A,,Clear,30,2012-11-18 15:55:00
11:55 AM,45.7,29.7,54,30.68,10.0,North,4.6,-,N/A,,Clear,350,2012-11-18 16:55:00
12:55 PM,47.8,30.0,50,30.66,10.0,Calm,Calm,-,N/A,,Clear,0,2012-11-18 17:55:00
1:55 PM,49.1,30.9,50,30.63,10.0,Calm,Calm,-,N/A,,Clear,0,2012-11-18 18:55:00
2:55 PM,49.1,28.4,45,30.63,10.0,Calm,Calm,-,N/A,,Clear,0,2012-11-18 19:55:00
3:55 PM,46.9,26.6,45,30.63,10.0,Variable,3.5,-,N/A,,Clear,0,2012-11-18 20:55:00
4:55 PM,44.2,26.4,50,30.64,10.0,East,3.5,-,N/A,,Clear,100,2012-11-18 21:55:00
5:55 PM,34.7,26.1,71,30.65,10.0,Calm,Calm,-,N/A,,Clear,0,2012-11-18 22:55:00
6:55 PM,32.0,27.0,82,30.64,10.0,Calm,Calm,-,N/A,,Clear,0,2012-11-18 23:55:00
7:55 PM,35.4,27.1,72,30.65,10.0,East,3.5,-,N/A,,Clear,100,2012-11-19 00:55:00
8:55 PM,28.2,23.9,84,30.65,10.0,Calm,Calm,-,N/A,,Clear,0,2012-11-19 01:55:00
9:55 PM,26.8,23.7,88,30.65,10.0,Calm,Calm,-,N/A,,Clear,0,2012-11-19 02:55:00
10:55 PM,26.1,24.1,92,30.64,10.0,Calm,Calm,-,N/A,,Clear,0,2012-11-19 03:55:00
11:55 PM,22.5,20.8,93,30.63,10.0,Calm,Calm,-,N/A,,Clear,0,2012-11-19 04:55:00